Skip Page Navigation
NASA JPL Caltech
NASA Logo - Jet Propulsion Laboratory + View the NASA Portal
+ Center for Near-Earth Object Studies
JPL Home Earth Solar System Stars & Galaxies Technology
JPL Solar System Dynamics
BODIES ORBITS EPHEMERIDES TOOLS PHYSICAL DATA DISCOVERY FAQ SITE MAP
JPL Small-Body Database Browser
Search: [ help ]  
(2013 JD4)
Classification: Centaur          SPK-ID: 3637659
Ephemeris | Orbit Diagram | Orbital Elements | Mission Design | Physical Parameters | Close-Approach Data ]

[ show orbit diagram ]
Orbital Elements at Epoch 2459396.5 (2021-Jul-01.0) TDB
Reference: JPL 11 (heliocentric ecliptic J2000)
 Element Value Uncertainty (1-sigma)   Units 
e .8634627457959166 0.0017628  
a 11.98983393644277 0.16056 au
q 1.637059004044833 0.00079123 au
i 72.93991331508616 0.041474 deg
node 226.6551685499746 0.0019449 deg
peri 295.9581052361033 0.055442 deg
M 73.7711720887456 1.4843 deg
tp 2456289.062790898040
(2012-Dec-27.56279090)
0.10437 TDB
period 15164.15374193802
41.52
304.6
0.8339
d
yr
n .02374019718649931 0.00047686 deg/d
Q 22.34260886884072 0.29919 au
  Orbit Determination Parameters
   # obs. used (total)      110  
   data-arc span      32 days  
   first obs. used      2013-05-03  
   last obs. used      2013-06-04  
   planetary ephem.      DE441  
   SB-pert. ephem.      SB441-N16  
   condition code      7  
   norm. resid. RMS      .57495  
   source      ORB  
   producer      Otto Matic  
   solution date      2021-Apr-15 08:09:47  

Additional Information
 Earth MOID = .986503 au 
 Jupiter MOID = .125613 au 
 T_jup = 0.883 
[ show covariance matrix ]

Ephemeris | Orbit Diagram | Orbital Elements | Mission Design | Physical Parameters | Close-Approach Data ]

Physical Parameter Table
Parameter Symbol Value Units Sigma Reference Notes
absolute magnitude H 16.5   n/a MPO263226  

[ show close-approach data ]
Ephemeris | Orbit Diagram | Orbital Elements | Mission Design | Physical Parameters | Close-Approach Data ]
ABOUT SSD CREDITS/AWARDS PRIVACY/COPYRIGHT GLOSSARY LINKS
FirstGov 2021-Aug-05 19:47 UT
(server date/time)  
NASA Home Page
Site Manager:   Ryan S. Park
Webmaster  Alan B. Chamberlin